• în Republica Moldova
  • Lista ţărilor
  • Pe 7 zile
  • Temperatura apei
  • Hartă satelitară
  • Meteo pe hartă
  • Widget-uri
  • user-avatar
    Intrare

    Meteo pe oră la Sumgait

    Astăzi, 24 Martie, Vineri

    Timp Temperatura Precipitaţii Vânt Presiune Umiditate
    00:00 +3°C° 0 mm 6 m/s 746 mmHg 84%
    01:00 +3°C° 0 mm 6 m/s 746 mmHg 84%
    02:00 +3°C° 0 mm 6 m/s 746 mmHg 85%
    03:00 +2°C° 0 mm 5 m/s 746 mmHg 84%
    04:00 +2°C° 0 mm 6 m/s 746 mmHg 84%
    05:00 +2°C° 0 mm 6 m/s 747 mmHg 83%
    06:00 +2°C° 0 mm 6 m/s 747 mmHg 83%
    07:00 +3°C° 0 mm 6 m/s 747 mmHg 80%
    08:00 +4°C° 0 mm 6 m/s 747 mmHg 76%
    09:00 +5°C° 0 mm 5 m/s 748 mmHg 73%
    10:00 +6°C° 0 mm 5 m/s 748 mmHg 70%
    11:00 +6°C° 0 mm 5 m/s 748 mmHg 68%
    12:00 +7°C° 0 mm 5 m/s 748 mmHg 65%
    13:00 +7°C° 0 mm 5 m/s 748 mmHg 66%
    14:00 +7°C° 0 mm 4 m/s 748 mmHg 66%
    15:00 +7°C° 0 mm 4 m/s 748 mmHg 67%
    16:00 +6°C° 0 mm 4 m/s 748 mmHg 70%
    17:00 +7°C° 0 mm 3 m/s 748 mmHg 73%
    18:00 +5°C° 0 mm 3 m/s 748 mmHg 76%
    19:00 +6°C° 0 mm 2 m/s 748 mmHg 79%
    20:00 +5°C° 0 mm 2 m/s 748 mmHg 82%
    21:00 +6°C° 0 mm 1 m/s 748 mmHg 84%
    22:00 +6°C° 0 mm 1 m/s 747 mmHg 84%
    23:00 +4°C° 0 mm 2 m/s 747 mmHg 85%

    Mâine, 25 Martie, Sâmbătă

    Timp Temperatura Precipitaţii Vânt Presiune Umiditate
    00:00 +4°C° 0 mm 2 m/s 747 mmHg 85%
    01:00 +4°C° 0 mm 2 m/s 747 mmHg 85%
    02:00 +3°C° 0 mm 3 m/s 746 mmHg 85%
    03:00 +3°C° 0 mm 3 m/s 746 mmHg 84%
    04:00 +3°C° 0 mm 3 m/s 745 mmHg 84%
    05:00 +3°C° 0 mm 3 m/s 745 mmHg 84%
    06:00 +3°C° 0 mm 4 m/s 745 mmHg 84%
    07:00 +3°C° 0 mm 5 m/s 745 mmHg 81%
    08:00 +6°C° 0 mm 5 m/s 745 mmHg 77%
    09:00 +7°C° 0 mm 6 m/s 745 mmHg 73%
    10:00 +8°C° 0 mm 6 m/s 744 mmHg 68%
    11:00 +9°C° 0 mm 6 m/s 744 mmHg 63%
    12:00 +10°C° 0 mm 7 m/s 744 mmHg 58%
    13:00 +10°C° 0 mm 7 m/s 743 mmHg 56%
    14:00 +11°C° 0 mm 7 m/s 743 mmHg 55%
    15:00 +11°C° 0 mm 7 m/s 742 mmHg 53%
    16:00 +10°C° 0 mm 7 m/s 742 mmHg 58%
    17:00 +9°C° 0 mm 7 m/s 742 mmHg 63%
    18:00 +8°C° 0 mm 6 m/s 741 mmHg 69%
    19:00 +7°C° 0 mm 6 m/s 741 mmHg 73%
    20:00 +6°C° 0 mm 5 m/s 741 mmHg 77%
    21:00 +6°C° 0 mm 5 m/s 741 mmHg 81%
    22:00 +6°C° 0 mm 5 m/s 741 mmHg 83%
    23:00 +5°C° 0 mm 5 m/s 741 mmHg 85%

    Poimâine, 26 Martie, Duminică

    Timp Temperatura Precipitaţii Vânt Presiune Umiditate
    00:00 +5°C° 0 mm 4 m/s 741 mmHg 86%
    01:00 +5°C° 0 mm 4 m/s 740 mmHg 87%
    02:00 +5°C° 0 mm 4 m/s 740 mmHg 88%
    03:00 +4°C° 0 mm 4 m/s 740 mmHg 89%
    04:00 +4°C° 0 mm 4 m/s 739 mmHg 89%
    05:00 +4°C° 0 mm 4 m/s 739 mmHg 89%
    06:00 +4°C° 0 mm 4 m/s 739 mmHg 89%
    07:00 +6°C° 0 mm 5 m/s 740 mmHg 81%
    08:00 +8°C° 0 mm 5 m/s 740 mmHg 72%
    09:00 +9°C° 0 mm 5 m/s 740 mmHg 64%
    10:00 +11°C° 0 mm 6 m/s 740 mmHg 58%
    11:00 +13°C° 0 mm 6 m/s 739 mmHg 53%
    12:00 +14°C° 0 mm 7 m/s 739 mmHg 47%
    13:00 +14°C° 0 mm 7 m/s 739 mmHg 46%
    14:00 +15°C° 0 mm 7 m/s 738 mmHg 46%
    15:00 +15°C° 0 mm 7 m/s 738 mmHg 45%
    16:00 +14°C° 0 mm 7 m/s 738 mmHg 48%
    17:00 +12°C° 0 mm 7 m/s 738 mmHg 52%
    18:00 +11°C° 0 mm 6 m/s 738 mmHg 56%
    19:00 +10°C° 0 mm 6 m/s 738 mmHg 61%
    20:00 +9°C° 0 mm 5 m/s 739 mmHg 65%
    21:00 +8°C° 0 mm 5 m/s 739 mmHg 69%
    22:00 +8°C° 0 mm 4 m/s 739 mmHg 72%
    23:00 +8°C° 0 mm 3 m/s 739 mmHg 75%

    27 Martie, Luni

    Timp Temperatura Precipitaţii Vânt Presiune Umiditate
    00:00 +8°C° 0 mm 2 m/s 739 mmHg 78%
    01:00 +7°C° 0 mm 2 m/s 739 mmHg 78%
    02:00 +7°C° 0 mm 2 m/s 739 mmHg 79%
    03:00 +6°C° 0 mm 2 m/s 739 mmHg 79%
    04:00 +5°C° 0 mm 3 m/s 739 mmHg 78%
    05:00 +5°C° 0 mm 3 m/s 739 mmHg 78%
    06:00 +5°C° 0 mm 3 m/s 739 mmHg 78%
    07:00 +7°C° 0 mm 3 m/s 739 mmHg 72%
    08:00 +9°C° 0 mm 3 m/s 740 mmHg 66%
    09:00 +10°C° 0 mm 3 m/s 740 mmHg 61%
    10:00 +11°C° 0 mm 4 m/s 740 mmHg 58%
    11:00 +12°C° 0 mm 4 m/s 739 mmHg 54%
    12:00 +13°C° 0 mm 4 m/s 739 mmHg 51%
    13:00 +13°C° 0 mm 4 m/s 739 mmHg 51%
    14:00 +14°C° 0 mm 4 m/s 738 mmHg 51%
    15:00 +14°C° 0 mm 5 m/s 738 mmHg 51%
    16:00 +13°C° 0 mm 4 m/s 737 mmHg 56%
    17:00 +12°C° 0 mm 4 m/s 737 mmHg 61%
    18:00 +11°C° 0 mm 4 m/s 737 mmHg 66%
    19:00 +10°C° 0 mm 4 m/s 737 mmHg 67%
    20:00 +10°C° 0 mm 4 m/s 737 mmHg 69%
    21:00 +8°C° 0 mm 4 m/s 737 mmHg 71%
    22:00 +8°C° 0 mm 4 m/s 736 mmHg 70%
    23:00 +9°C° 0 mm 5 m/s 736 mmHg 68%

    28 Martie, Marţi

    Timp Temperatura Precipitaţii Vânt Presiune Umiditate
    00:00 +9°C° 0 mm 5 m/s 735 mmHg 67%
    01:00 +9°C° 0 mm 6 m/s 735 mmHg 63%
    02:00 +9°C° 0 mm 6 m/s 734 mmHg 59%
    03:00 +10°C° 0 mm 7 m/s 733 mmHg 54%
    04:00 +10°C° 0 mm 7 m/s 734 mmHg 51%
    05:00 +10°C° 0 mm 7 m/s 734 mmHg 48%
    06:00 +10°C° 0 mm 7 m/s 734 mmHg 45%
    07:00 +11°C° 0 mm 7 m/s 735 mmHg 47%
    08:00 +12°C° 0 mm 7 m/s 735 mmHg 48%
    09:00 +12°C° 0 mm 7 m/s 736 mmHg 50%
    10:00 +13°C° 0 mm 8 m/s 736 mmHg 50%
    11:00 +13°C° 0 mm 8 m/s 736 mmHg 50%
    12:00 +13°C° 0 mm 8 m/s 737 mmHg 50%
    13:00 +13°C° 0 mm 8 m/s 737 mmHg 52%
    14:00 +12°C° 0 mm 9 m/s 737 mmHg 54%
    15:00 +12°C° 0 mm 9 m/s 737 mmHg 57%
    16:00 +10°C° 0 mm 9 m/s 737 mmHg 61%
    17:00 +8°C° 0 mm 9 m/s 738 mmHg 66%
    18:00 +7°C° 0 mm 9 m/s 738 mmHg 71%
    19:00 +7°C° 0 mm 8 m/s 739 mmHg 70%
    20:00 +6°C° 0 mm 7 m/s 740 mmHg 68%
    21:00 +6°C° 0 mm 7 m/s 741 mmHg 67%
    22:00 +7°C° 0,1 mm 6 m/s 741 mmHg 69%
    23:00 +7°C° 0,1 mm 5 m/s 741 mmHg 71%

    29 Martie, Miercuri

    Timp Temperatura Precipitaţii Vânt Presiune Umiditate
    00:00 +7°C° 0,1 mm 4 m/s 741 mmHg 72%
    01:00 +6°C° 0 mm 4 m/s 741 mmHg 73%
    02:00 +7°C° 0 mm 3 m/s 741 mmHg 75%
    03:00 +7°C° 0 mm 3 m/s 741 mmHg 76%
    04:00 +7°C° 0 mm 3 m/s 741 mmHg 78%
    05:00 +5°C° 0 mm 4 m/s 741 mmHg 79%
    06:00 +5°C° 0 mm 5 m/s 741 mmHg 80%
    07:00 +6°C° 0 mm 5 m/s 741 mmHg 71%
    08:00 +7°C° 0 mm 6 m/s 741 mmHg 63%
    09:00 +9°C° 0 mm 7 m/s 741 mmHg 54%
    10:00 +10°C° 0 mm 6 m/s 741 mmHg 48%
    11:00 +11°C° 0 mm 6 m/s 741 mmHg 42%
    12:00 +13°C° 0 mm 6 m/s 741 mmHg 37%
    13:00 +13°C° 0 mm 6 m/s 741 mmHg 41%
    14:00 +13°C° 0 mm 6 m/s 740 mmHg 44%
    15:00 +11°C° 0 mm 6 m/s 740 mmHg 48%
    16:00 +10°C° 0 mm 6 m/s 741 mmHg 57%
    17:00 +8°C° 0 mm 6 m/s 741 mmHg 65%
    18:00 +7°C° 0 mm 6 m/s 742 mmHg 74%
    19:00 +7°C° 0 mm 5 m/s 742 mmHg 76%
    20:00 +6°C° 0 mm 5 m/s 743 mmHg 78%
    21:00 +6°C° 0 mm 5 m/s 744 mmHg 80%
    22:00 +6°C° 0 mm 4 m/s 744 mmHg 80%
    23:00 +5°C° 0 mm 4 m/s 745 mmHg 79%
    Arată mai mult